{"data":{"norad_id":49441,"intl_designator":"2021-104AK","name":"STARLINK-3128","alt_names":[],"object_type":"PAYLOAD","status":"ACTIVE","operator":null,"country":"US","launch_date":"2021-11-13","launch_site_code":"AFETR","launch_vehicle":null,"mission":null,"orbit_class":"UNKNOWN","rcs_meters":null,"size_class":null,"mass_kg":null,"dimensions":null,"purposes":["comms"],"wikipedia_slug":null,"has_3d_model":false,"image_url":null,"decayed_at":null,"tle_current":{"epoch":"2026-05-24T15:31:37.901280Z","epoch_age_seconds":108822,"freshness":"FRESH","line1":"1 49441U 21104AK  26144.64696645 -.00000259  00000+0  18071-5 0  9991","line2":"2 49441  53.2156 228.1319 0001128  91.8034 268.3088 15.08838489250386","mean_motion":15.08838489,"eccentricity":0.0001128,"inclination_deg":53.2156,"raan_deg":228.1319,"arg_perigee_deg":91.8034,"mean_anomaly_deg":268.3088,"bstar":1.8071e-6,"rev_number":25038,"period_min":95.437650252041,"perigee_km":538.96767006163,"apogee_km":540.52834491932,"semimajor_km":6917.8850074905,"source":"CELESTRAK","updated_at":"2026-05-25T13:38:16.801609Z"}}}